Stations météo

réclame
Mon MeteoGroup
Brescia/Ghedi, Italie (16088): Température de l'air & dewpoint: 17.10.2018 07:00:00 - 23.10.2018 07:00:00 (CEST)Brescia/Ghedi, Italie (16088): Vitesse du vent: 17.10.2018 07:00:00 - 23.10.2018 07:00:00 (CEST)Brescia/Ghedi, Italie (16088): Direction du vent: 17.10.2018 07:00:00 - 23.10.2018 07:00:00 (CEST)Brescia/Ghedi, Italie (16088): reduced air pressure: 17.10.2018 07:00:00 - 23.10.2018 07:00:00 (CEST)Brescia/Ghedi, Italie (16088): visibility: 17.10.2018 07:00:00 - 23.10.2018 07:00:00 (CEST)
Date & Time tt [°C] td [°C] ff [km/h] ff [knt] dd ppp [hPa] vv [km]
23.10.2018 07:00:00 8,1 8,0 2 1 S 1024,8 10
23.10.2018 06:00:00 8,2 7,9 5 3 NNE 1024,5 10
23.10.2018 05:00:00 9,0 8,1 8 4 NNW 1024,5 10
23.10.2018 04:00:00 9,0 8,1 4 2 NNE 1024,9 10
23.10.2018 03:00:00 9,1 7,7 8 4 N 1024,9 10
23.10.2018 02:00:00 9,5 7,6 8 4 E 1024,9 10
23.10.2018 01:00:00 9,9 7,8 5 3 NNE 1024,7 10
23.10.2018 00:00:00 10,0 7,4 2 1 NE 1024,4 10
22.10.2018 23:00:00 10,5 7,4 4 2 E 1023,7 10
22.10.2018 22:00:00 11,0 6,4 2 1 ENE 1023,2 10
22.10.2018 21:00:00 12,5 6,3 2 1 N 1022,2 10
22.10.2018 20:00:00 14,0 6,1 2 1 W 1021,8 10
22.10.2018 19:00:00 16,2 6,1 4 2 WSW 1021,6 15
22.10.2018 18:00:00 18,0 5,6 2 1 WSW 1020,7 20
22.10.2018 17:00:00 19,6 6,7 5 3 WSW 1020,7 20
22.10.2018 16:00:00 20,2 7,6 4 2 SW 1021,0 20
22.10.2018 15:00:00 20,0 7,4 4 2 N 1021,4 20
22.10.2018 14:00:00 19,2 7,6 4 2 S 1021,8 20
22.10.2018 13:00:00 18,0 8,6 5 3 SSW 1023,2 20
22.10.2018 12:00:00 17,4 9,8 8 4 WNW 1023,4 20
22.10.2018 11:00:00 15,0 10,2 15 8 NW 1023,5 20
22.10.2018 10:00:00 13,0 9,8 8 4 NNW 1023,5 20
22.10.2018 09:00:00 9,8 9,2 8 4 NNW 1023,4 10
22.10.2018 08:00:00 7,0 7,0 4 2 N 1022,7 10
22.10.2018 07:00:00 8,0 8,0 8 4 N 1022,7 10
22.10.2018 06:00:00 8,6 8,5 5 3 N 1023,3 10
22.10.2018 05:00:00 9,4 9,1 2 1 NE 1023,7 10
22.10.2018 04:00:00 9,8 9,0 4 2 N 1023,6 10
22.10.2018 03:00:00 10,6 9,5 2 1 N 1023,6 10
22.10.2018 02:00:00 11,4 10,1 4 2 N 1023,6 10
22.10.2018 01:00:00 12,0 10,2 2 1 WSW 1023,5 10
22.10.2018 00:00:00 12,6 10,3 4 2 W 1023,5 10
21.10.2018 23:00:00 13,0 10,0 2 1 ENE 1023,5 10
21.10.2018 22:00:00 13,0 9,6 13 7 ESE 1023,5 10
21.10.2018 21:00:00 13,2 9,5 15 8 ESE 1023,3 10
21.10.2018 20:00:00 13,5 9,4 22 12 ESE 1023,0 8
21.10.2018 19:00:00 13,9 9,9 42 23 ESE 1021,4 8
21.10.2018 18:00:00 19,3 13,0 22 12 ESE 1018,9 5
21.10.2018 17:00:00 20,1 12,6 18 10 ESE 1018,4 6
21.10.2018 16:00:00 20,4 12,6 13 7 ESE 1018,4 6
21.10.2018 15:00:00 20,0 12,7 9 5 SSE 1018,6 6
21.10.2018 14:00:00 20,0 13,2 11 6 SE 1019,3 5
21.10.2018 13:00:00 18,3 13,6 9 5 ESE 1020,0 5
21.10.2018 12:00:00 16,7 14,0 9 5 ESE 1020,7 4,0
21.10.2018 11:00:00 15,3 13,2 15 8 ESE 1020,8 3,5
21.10.2018 10:00:00 15,1 14,3 4 2 E 1020,1 3,0
21.10.2018 09:00:00 13,3 13,3 2 1 NW 1020,2 3,0
21.10.2018 08:00:00 11,2 11,2 4 2 E 1020,4 2,8
21.10.2018 07:00:00 11,0 11,0 4 2 NE 1020,7 3,0
21.10.2018 06:00:00 11,0 11,0 2 1 ENE 1021,2 3,0
21.10.2018 05:00:00 11,8 11,8 8 4 NW 1021,6 3,5
21.10.2018 04:00:00 11,8 11,8 4 2 NNE 1022,1 4,0
21.10.2018 03:00:00 12,2 12,2 4 2 N 1022,6 4,0
21.10.2018 02:00:00 13,0 12,5 4 2 N 1023,1 4,0
21.10.2018 01:00:00 13,2 12,9 5 3 NNE 1023,3 4,0
21.10.2018 00:00:00 13,8 12,7 2 1 NE 1023,6 5
20.10.2018 23:00:00 14,0 12,4 4 2 NNE 1023,5 5
20.10.2018 22:00:00 14,1 12,0 4 2 NNE 1023,1 8
20.10.2018 21:00:00 15,0 11,6 8 4 N 1022,6 8
20.10.2018 20:00:00 15,6 11,2 2 1 ENE 1022,1 8
20.10.2018 19:00:00 17,6 11,4 2 1 NW 1022,1 10
20.10.2018 18:00:00 20,8 12,5 2 1 SW 1022,0 10
20.10.2018 17:00:00 22,6 13,1 4 2 WSW 1021,9 10
20.10.2018 16:00:00 22,8 13,8 4 2 S 1022,7 10
20.10.2018 15:00:00 22,2 13,5 2 1 E 1023,5 10
20.10.2018 14:00:00 22,0 14,1 4 2 SW 1023,7 10
20.10.2018 13:00:00 21,0 14,2 4 2 S 1023,8 8
20.10.2018 12:00:00 20,8 14,9 4 2 SSW 1023,6 8
20.10.2018 11:00:00 18,6 14,7 4 2 SSW 1023,3 6
20.10.2018 10:00:00 16,4 14,9 4 2 N 1023,0 5
20.10.2018 09:00:00 13,2 13,0 2 1 WNW 1022,7 4,0
20.10.2018 08:00:00 12,0 12,0 4 2 NNW 1022,1 4,0
20.10.2018 07:00:00 11,6 11,3 2 1 NW 1021,9 6
20.10.2018 06:00:00 12,5 12,2 4 2 N 1021,2 7
20.10.2018 05:00:00 12,8 12,3 4 2 NNE 1021,4 6
20.10.2018 04:00:00 13,0 12,4 4 2 NE 1021,7 6
20.10.2018 03:00:00 12,4 11,8 4 2 N 1021,2 7
20.10.2018 02:00:00 12,6 12,0 4 2 NNW 1021,2 7
20.10.2018 01:00:00 13,4 12,8 4 2 NE 1021,0 7
20.10.2018 00:00:00 13,8 13,0 4 2 NNE 1020,7 7
19.10.2018 23:00:00 14,0 12,5 4 2 NNE 1020,5 10
19.10.2018 22:00:00 14,8 13,4 4 2 NNE 1019,8 10
19.10.2018 21:00:00 15,0 12,7 4 2 NE 1019,5 7
19.10.2018 20:00:00 16,6 13,1 5 3 NE 1019,0 6
19.10.2018 19:00:00 18,8 13,2 5 3 E 1018,4 5
19.10.2018 18:00:00 21,0 13,2 2 1 W 1018,1 6
19.10.2018 17:00:00 22,8 13,8 2 1 WSW 1018,1 10
19.10.2018 16:00:00 23,0 13,8 4 2 SSW 1018,1 10
19.10.2018 15:00:00 23,0 14,0 4 2 NW 1018,1 10
19.10.2018 14:00:00 22,0 13,4 4 2 WNW 1018,1 10
19.10.2018 13:00:00 21,8 14,4 5 3 SSW 1018,8 10
19.10.2018 12:00:00 21,0 13,9 5 3 SSW 1018,8 10
19.10.2018 11:00:00 19,5 13,4 4 2 SSW 1018,8 10
19.10.2018 10:00:00 16,0 12,2 2 1 SSE 1018,7 10
19.10.2018 09:00:00 13,2 12,6 2 1 ENE 1018,1 8
19.10.2018 08:00:00 12,0 12,0 4 2 ENE 1017,7 7
19.10.2018 07:00:00 12,0 12,0 2 1 WNW 1017,7 8
19.10.2018 06:00:00 12,1 12,1 2 1 N 1017,7 8
19.10.2018 05:00:00 12,4 12,4 5 3 NNW 1017,7 8
19.10.2018 04:00:00 12,6 12,6 5 3 NNW 1017,7 8
19.10.2018 03:00:00 13,4 13,4 2 1 NNE 1017,6 8
19.10.2018 02:00:00 13,6 13,6 2 1 N 1017,6 8
19.10.2018 01:00:00 14,0 14,0 2 1 NNE 1017,5 8
19.10.2018 00:00:00 14,1 13,8 2 1 NE 1017,2 8
18.10.2018 23:00:00 14,8 13,7 2 1 SSE 1016,7 8
18.10.2018 22:00:00 15,2 13,7 4 2 NE 1016,5 8
18.10.2018 21:00:00 15,8 14,2 5 3 NNW 1016,0 8
18.10.2018 20:00:00 16,8 13,7 2 1 NNW 1016,1 7
18.10.2018 19:00:00 19,0 13,8 2 1 W 1015,9 7
18.10.2018 18:00:00 21,0 14,2 2 1 WSW 1015,6 6
18.10.2018 17:00:00 21,8 14,4 4 2 SW 1015,7 6
18.10.2018 16:00:00 21,8 14,2 4 2 SSW 1015,7 7
18.10.2018 15:00:00 22,2 14,6 5 3 SE 1015,9 7
18.10.2018 14:00:00 21,8 14,7 5 3 SSW 1016,6 7
18.10.2018 13:00:00 21,0 14,9 5 3 S 1017,3 7
18.10.2018 12:00:00 19,0 14,7 5 3 W 1017,5 6
18.10.2018 11:00:00 18,0 16,0 4 2 WSW 1017,7 5
18.10.2018 10:00:00 16,8 15,3 4 2 SW 1017,6 5
18.10.2018 09:00:00 16,0 14,9 2 1 NNW 1017,6 5
18.10.2018 08:00:00 15,5 14,7 4 2 N 1017,3 5
18.10.2018 07:00:00 15,8 15,0 2 1 NNE 1017,2 5
18.10.2018 06:00:00 15,1 14,8 2 1 W 1017,4 5
18.10.2018 05:00:00 14,9 14,9 2 1 N 1017,6 5
18.10.2018 04:00:00 14,0 14,0 5 3 NNW 1017,9 5
18.10.2018 03:00:00 14,0 13,7 2 1 SSW 1018,3 5
18.10.2018 02:00:00 14,5 13,9 4 2 N 1018,5 6
18.10.2018 01:00:00 15,0 14,2 5 3 ENE 1019,1 6
18.10.2018 00:00:00 15,0 14,5 8 4 NNE 1019,1 6
17.10.2018 23:00:00 14,8 13,7 2 1 S 1019,1 6
17.10.2018 22:00:00 16,0 13,5 4 2 N 1019,0 8
17.10.2018 21:00:00 17,4 13,5 4 2 WSW 1018,5 10
17.10.2018 20:00:00 18,2 13,3 4 2 ESE 1018,5 10
17.10.2018 19:00:00 19,2 13,6 2 1 SSE 1018,3 10
17.10.2018 18:00:00 20,2 13,2 8 4 SE 1018,2 10
17.10.2018 17:00:00 20,6 12,8 9 5 E 1018,2 10
17.10.2018 16:00:00 20,4 13,1 4 2 ESE 1018,4 10
17.10.2018 15:00:00 20,2 12,9 8 4 ESE 1018,8 9
17.10.2018 14:00:00 20,0 12,7 8 4 ENE 1019,6 10
17.10.2018 13:00:00 19,4 12,9 5 3 E 1020,4 7
17.10.2018 12:00:00 19,4 12,9 4 2 S 1021,2 7
17.10.2018 11:00:00 19,2 14,5 4 2 SW 1021,2 7
17.10.2018 10:00:00 17,1 13,4 2 1 W 1020,5 6
17.10.2018 09:00:00 16,0 14,2 4 2 WSW 1020,0 4,5
17.10.2018 08:00:00 15,2 14,1 2 1 W 1020,0 3,5
17.10.2018 07:00:00 15,2 14,2 0 0 N 1019,9 6

tt = Température de l'air
td = dewpoint
ff = Vitesse du vent
dd = Direction du vent
ppp = reduced air pressure
vv = visibility

stations d'obs. à proximité